CYGNUS NG-11 (44188 NORAD) Tracking and Keplerian Element Data

This shows tracking and keplerian element data for the satellite.

Feedback or suggestion? Click here.




ElementValue
Catalog44188
NameCYGNUS NG-11
Epoch Orbit582
Epoch Day145.38341464
Epoch Year2019
RAAN114.4671
Inclination51.645
Eccentricity0.0007296
Argument of Perigee335.1078
Mean Anonmoly140.6481
Mean Motion15.51158306
Decay Rate0.00011705
L11 44188U 19022A 19145.38341464 .00011705 00000-0 20417-3 0 9993
L22 44188 51.6450 114.4671 0007296 335.1078 140.6481 15.51158306 5827

Live tracking and technical data element details for CYGNUS NG-11 (NORAD 44188). CYGNUS NG-11 can be tracked NOW for your location showing map with azimuth and elevation plus other details from your city location.

Track the satellite on the map from your city or location and see movement details for azimuth, elevation, latitude, longitude, range, height, and movement on the map or in text.







IsCatalogInMostPopularTable: catalog: 44188, numindb: 17
Update: records affected: 1



GetName: 44188 CYGNUS NG-11

Hit Count: updated at: Sun, 26 May 2019 07:45:29 GMT